Theta_e
295 285 282 281 284 286 288 288 288 288 288 287 286 285 284 284 285 288 289 291 293 290 289 290 290 290 291 292 293 294 296 295 296 296 296 297 298 299 299 300 300 300 300 304 305 305 306 306 307 309 310 310 313 318 324 326 329 330 331 331 331 333 332 332 331 329 328 327 327 327 327 326 328 328 328 328 329 330 330 330 330 329 328 328 328 328
294 284 283 286 287 288 288 290 290 288 289 287 286 285 284 284 283 288 287 291 293 289 288 290 289 289 290 292 293 295 295 295 295 296 297 298 298 299 299 299 298 298 301 302 301 303 304 305 306 306 307 309 309 310 314 320 324 328 330 330 331 332 332 332 331 330 329 329 328 327 327 328 328 328 326 326 328 328 330 330 329 329 329 329 328 327
284 282 285 287 289 290 290 289 289 288 286 287 285 285 284 285 286 287 289 291 292 290 286 289 287 289 292 293 295 295 295 297 298 298 297 297 298 298 297 297 298 298 298 299 300 301 302 303 303 304 304 305 306 307 309 312 316 321 326 329 330 331 331 331 331 331 330 331 330 330 329 329 329 331 330 330 330 329 329 329 329 329 329 328 327 328
281 283 286 289 289 288 287 287 286 286 287 285 284 283 281 285 283 282 287 290 291 289 287 288 288 290 292 294 294 296 295 296 298 297 298 298 296 296 296 296 296 296 297 297 298 299 300 301 302 302 302 303 305 305 306 307 308 313 320 324 327 329 331 331 331 330 332 332 333 332 331 332 330 329 330 330 330 330 329 328 328 328 328 328 327 327
282 285 288 289 288 286 284 285 284 284 283 286 285 284 282 283 284 284 284 287 289 292 291 290 287 289 289 289 290 294 296 295 297 298 297 296 296 296 296 296 296 295 296 296 297 298 298 299 300 301 302 303 303 303 304 305 306 306 309 316 322 326 328 331 330 330 331 331 331 331 331 332 331 331 330 329 328 328 328 328 328 328 328 328 328 327
284 287 289 287 286 286 285 283 283 283 282 283 286 285 284 285 284 285 286 284 284 285 290 287 280 282 288 288 290 293 293 294 296 292 292 293 293 294 293 294 295 296 296 296 296 297 297 298 299 300 301 301 302 302 303 305 306 307 307 309 313 319 326 328 330 331 330 329 328 328 327 325 325 324 325 325 325 327 327 327 329 330 329 329 328 328
283 288 288 286 286 284 284 283 284 284 281 281 282 287 286 286 286 285 284 284 279 279 286 290 279 277 287 286 289 291 292 293 292 291 291 291 291 292 292 293 293 294 294 296 296 296 296 297 298 298 299 300 300 301 303 304 305 306 307 308 309 312 318 325 329 330 330 329 328 327 326 326 325 324 326 328 329 329 329 330 329 330 330 330 328 328
285 286 286 287 285 283 281 280 284 283 281 280 286 287 286 285 285 285 284 284 282 286 288 288 285 279 280 286 290 291 291 291 289 290 290 290 290 290 291 292 293 293 294 294 295 295 296 297 297 297 298 299 300 301 302 303 304 306 307 307 308 309 312 318 325 329 330 328 327 327 326 326 326 326 326 328 329 330 330 329 329 329 329 330 329 328
284 283 284 283 283 281 279 282 284 285 282 283 286 286 285 285 285 285 284 283 284 283 280 284 287 281 280 286 291 291 288 288 288 289 289 289 289 290 290 291 292 293 293 294 294 294 295 296 297 297 298 299 300 301 301 302 303 305 307 308 308 308 308 311 317 324 328 328 327 327 326 325 326 327 327 328 329 328 330 329 329 328 329 329 329 329
285 284 285 285 283 279 283 284 285 285 282 285 287 288 288 288 287 285 283 283 284 280 277 280 285 278 280 286 287 288 287 286 288 288 288 288 288 289 290 291 291 292 293 294 294 294 295 296 296 298 298 299 299 300 302 302 303 304 305 307 307 308 308 308 310 316 325 328 327 326 326 325 326 326 326 327 327 328 328 328 328 328 328 329 328 329
285 288 287 287 283 284 284 285 286 285 287 289 288 287 287 287 286 285 285 284 281 275 278 281 283 282 276 283 284 284 285 287 287 286 287 287 288 289 290 290 291 291 292 292 293 294 295 296 297 297 297 298 299 300 300 301 302 303 304 305 306 307 308 309 308 310 315 325 327 326 326 326 325 326 326 325 325 326 327 326 327 327 327 328 328 328
285 285 284 285 289 287 287 285 288 288 289 287 284 283 284 283 285 283 283 284 276 274 280 282 282 284 275 280 285 287 288 287 285 283 284 285 286 288 289 290 291 292 292 292 293 293 294 295 296 296 296 297 298 299 299 300 301 302 303 304 304 306 307 309 309 309 310 315 325 327 327 326 326 326 326 325 324 325 325 326 326 327 327 327 328 328
281 282 283 286 288 286 283 283 284 286 287 284 283 282 276 274 276 272 276 272 273 272 279 282 283 280 281 285 286 287 286 286 286 285 284 284 285 287 288 290 291 292 292 292 292 293 293 294 294 295 296 297 297 298 298 298 300 300 301 302 303 304 306 308 309 309 308 310 315 324 326 326 326 326 327 326 325 326 326 326 326 326 325 326 326 326
279 282 283 283 287 287 285 278 278 278 281 281 279 278 274 270 269 267 270 273 274 278 282 280 283 278 284 285 289 286 285 287 286 286 286 285 286 287 288 289 290 291 292 292 292 293 293 294 294 295 296 296 297 297 297 298 299 300 300 301 302 303 305 306 308 309 309 308 310 315 323 326 326 326 326 327 326 326 326 327 326 326 326 326 326 326
270 273 279 281 279 286 283 281 281 279 281 280 283 281 277 274 269 266 269 267 269 272 277 281 277 276 277 281 290 287 287 288 287 286 286 287 287 288 289 289 290 290 291 292 292 293 293 294 294 295 296 296 296 297 297 298 298 299 299 300 301 301 303 305 306 308 309 309 308 310 314 322 326 326 326 327 327 327 327 327 326 326 327 327 327 327
273 274 280 285 284 285 281 284 285 282 281 283 283 284 278 275 280 270 273 273 272 272 273 276 277 282 281 287 291 289 288 286 285 285 286 286 287 288 288 288 288 289 290 291 291 292 293 294 295 295 295 296 296 296 297 297 298 298 298 299 300 301 302 303 304 307 309 309 309 309 310 314 320 324 326 326 327 327 328 328 327 327 327 328 328 329
275 273 282 283 286 283 282 283 283 286 274 280 281 275 277 282 278 275 276 277 276 274 272 279 278 280 285 285 289 289 286 284 284 284 284 285 286 287 287 288 288 289 290 290 291 292 293 294 294 295 295 295 295 296 296 296 297 297 298 299 299 300 301 302 302 304 307 308 308 308 309 310 313 319 324 325 326 327 328 328 328 328 328 328 329 329
272 272 281 281 280 284 285 284 284 285 283 282 276 279 283 283 281 275 268 272 271 268 270 275 272 275 275 273 287 284 283 283 283 283 284 285 286 286 287 288 288 289 289 290 291 292 293 293 294 294 295 295 295 295 296 296 297 298 298 298 298 299 299 301 302 304 306 307 307 308 308 309 311 313 320 325 326 326 327 327 328 328 328 328 329 328
279 271 277 281 281 282 284 284 283 285 287 282 279 286 278 272 271 276 274 265 265 265 267 272 273 273 275 276 281 280 281 281 282 283 284 284 285 286 287 288 289 290 290 290 290 291 292 292 293 293 294 295 295 296 296 297 297 297 298 298 298 298 299 300 301 303 304 306 308 309 308 309 310 313 316 321 325 327 327 327 327 327 328 329 329 328
280 271 274 281 280 280 281 280 275 279 285 282 285 281 284 280 274 271 273 272 272 266 266 267 270 270 278 279 280 280 281 281 282 282 283 284 285 286 287 287 288 289 289 290 290 291 291 292 292 293 293 293 294 294 295 296 296 296 297 297 297 298 299 300 300 301 302 303 306 308 310 310 309 311 313 317 322 324 326 327 327 327 327 327 328 328
275 279 269 277 280 280 275 278 276 277 276 279 280 277 277 277 280 277 276 273 270 267 267 266 265 272 279 282 281 281 282 282 283 282 283 284 285 286 287 287 288 289 289 289 290 290 291 291 292 292 293 293 294 294 294 294 295 295 296 296 297 297 298 298 299 300 300 301 303 305 308 310 310 310 311 312 314 317 323 326 326 327 327 327 327 327
276 276 270 273 273 274 275 282 280 279 280 279 279 276 277 274 271 269 268 277 274 270 266 266 265 272 279 283 283 282 283 283 284 284 284 285 285 286 287 288 288 288 289 289 289 290 290 291 291 292 292 293 292 292 292 293 293 294 294 295 296 297 297 297 298 298 299 300 301 303 305 308 311 311 311 311 311 311 313 318 322 325 326 325 326 326
279 277 273 270 272 274 278 281 283 283 281 281 281 278 278 276 276 272 266 270 273 273 274 271 267 270 282 284 283 283 284 284 284 285 284 285 286 286 287 288 289 289 289 288 288 289 290 290 290 290 291 291 291 291 291 291 292 292 293 294 295 295 295 297 297 298 299 299 300 301 303 305 308 311 311 310 311 311 312 313 314 315 317 320 322 324
280 272 271 272 276 279 280 280 278 280 280 275 276 277 278 274 276 274 273 274 271 272 269 269 266 271 281 284 284 284 285 285 285 285 285 285 286 286 286 287 288 288 289 288 288 289 289 289 290 289 289 289 290 290 290 291 291 292 292 293 293 293 294 295 297 297 298 298 299 300 301 303 305 307 308 310 312 311 312 313 314 314 314 315 317 319
274 274 272 269 270 272 273 276 278 277 276 277 276 278 279 279 277 276 275 275 269 271 271 268 264 270 281 284 284 284 284 283 284 285 286 284 285 285 285 286 288 288 288 287 287 288 288 288 288 288 288 288 289 290 290 290 291 291 291 291 291 292 293 294 296 297 297 297 298 298 299 301 303 304 305 306 308 309 309 310 310 311 312 314 315 316
276 274 272 267 264 262 264 266 268 270 273 276 277 277 277 275 274 272 269 271 268 272 273 270 269 276 281 283 282 282 282 282 284 285 285 285 284 284 284 286 287 288 287 287 287 287 287 287 288 287 287 288 288 289 290 290 291 291 291 291 291 291 292 293 294 295 296 296 297 297 298 300 302 302 303 303 303 304 305 305 306 308 309 310 312 314
276 276 274 273 270 269 271 273 277 277 274 270 273 274 275 276 277 275 273 270 268 271 271 273 273 274 276 278 279 280 281 281 282 283 282 282 284 284 284 285 286 287 287 286 286 286 286 286 286 287 287 287 288 288 289 290 290 290 290 290 291 291 291 292 293 294 294 295 296 297 298 299 299 300 301 301 302 302 302 302 303 303 306 306 306 308
274 271 273 272 272 273 274 273 275 276 271 272 272 272 275 274 274 272 269 268 274 270 266 273 275 272 274 277 279 279 281 282 282 281 281 282 283 283 283 284 286 287 287 286 285 285 285 286 286 286 286 287 287 288 288 289 290 290 290 290 290 291 291 291 292 292 293 294 295 296 298 298 298 298 299 301 301 302 303 304 303 302 302 301 303 304
272 269 272 272 271 273 274 274 275 274 274 273 273 273 272 274 273 270 270 273 273 269 267 272 275 273 275 277 279 280 281 281 280 280 281 282 283 283 283 283 284 286 286 284 284 284 285 285 285 286 286 286 286 287 287 288 289 290 290 290 290 290 290 291 290 291 292 293 294 295 297 297 297 297 298 299 301 302 303 303 304 304 303 302 302 303
274 271 272 272 270 272 273 273 274 273 272 272 272 273 274 273 273 273 272 273 273 271 273 273 274 274 276 278 280 281 283 281 280 281 281 281 281 282 282 282 283 285 284 283 283 284 285 285 285 285 286 286 286 286 286 287 288 289 289 289 290 290 291 291 291 291 291 291 293 294 295 296 297 297 297 297 298 300 301 301 302 302 303 304 304 304
273 271 274 272 269 269 272 273 273 273 272 270 272 273 273 274 273 274 274 274 274 273 274 274 273 273 278 281 282 283 282 281 281 280 280 281 281 281 281 281 282 284 284 283 283 284 284 285 285 285 285 285 285 286 286 287 288 289 289 289 289 289 290 291 291 291 291 291 292 293 294 295 296 296 296 297 297 298 299 299 300 300 301 302 303 303
274 271 274 271 267 267 270 271 271 271 271 269 269 270 272 271 268 272 272 275 273 272 274 274 273 274 279 283 282 282 281 280 279 280 280 280 281 281 281 281 282 283 283 283 283 284 284 284 284 285 285 285 285 286 286 286 287 288 288 289 288 289 290 290 290 290 291 292 292 293 294 294 294 294 295 296 296 297 298 298 298 299 300 300 301 302
274 272 270 269 266 266 270 271 270 269 268 268 269 272 274 275 275 276 277 277 277 276 273 271 273 279 281 281 280 280 281 280 279 280 280 280 281 281 281 281 282 283 283 283 283 283 284 284 284 285 285 285 285 285 286 287 287 287 288 288 288 289 289 290 290 290 290 291 292 293 294 293 293 294 294 295 295 295 296 297 298 298 299 299 300 300
274 272 270 272 265 267 270 270 270 267 263 266 276 278 276 274 275 273 273 275 278 278 276 279 278 280 280 280 280 279 279 279 279 281 282 281 280 281 281 282 282 283 283 283 283 283 284 284 284 285 285 285 286 286 287 287 287 288 289 289 289 288 289 289 290 290 290 291 292 292 293 294 293 293 294 294 294 293 294 295 297 297 297 297 297 299
272 272 271 272 267 266 269 269 266 262 265 275 279 280 279 278 277 275 276 278 278 279 279 278 278 278 279 280 280 280 280 281 281 281 281 283 283 282 281 282 282 282 282 282 283 283 283 284 284 284 285 285 285 286 286 287 287 288 288 288 288 288 288 289 289 290 290 290 291 292 292 292 292 292 292 292 293 293 294 294 294 295 296 296 297 298
272 271 271 270 270 270 268 268 261 263 272 276 277 278 280 279 279 277 275 277 278 278 278 277 278 279 280 280 280 281 281 281 281 282 283 283 284 283 282 281 282 282 282 283 283 283 283 283 284 284 284 285 285 285 286 286 287 287 287 287 287 287 288 288 288 289 290 290 290 291 291 291 291 291 292 291 291 292 292 293 294 294 295 294 296 297
275 273 271 267 272 263 267 266 266 271 271 273 273 275 277 274 275 274 269 274 278 279 278 277 278 279 280 280 281 280 281 280 279 280 283 283 284 284 283 282 283 283 283 284 284 283 284 285 284 285 285 285 285 285 285 286 286 286 286 286 287 287 287 287 288 288 289 289 290 290 290 290 290 291 291 292 292 292 292 292 292 293 293 293 295 295
278 271 273 268 268 270 266 264 265 265 262 268 275 278 280 280 280 279 275 272 278 279 280 278 278 279 279 279 279 280 280 277 274 276 281 282 283 283 283 283 284 284 284 284 284 284 284 285 285 285 285 284 285 285 286 286 285 285 285 285 286 286 286 286 287 288 288 289 290 290 290 290 290 290 291 291 291 292 292 291 291 291 292 292 293 294
277 277 274 271 268 269 267 264 263 261 265 273 275 278 280 281 279 279 273 268 277 279 280 279 278 278 278 278 278 279 276 272 273 276 280 281 281 282 282 282 283 283 284 284 283 283 284 284 284 285 285 284 284 285 286 285 285 284 284 285 285 286 285 286 286 287 288 288 289 290 290 290 290 290 290 290 291 292 292 292 292 290 290 290 291 293
271 272 272 268 267 268 266 264 262 267 266 272 276 278 280 281 280 275 264 265 277 278 279 279 278 278 278 278 278 277 275 271 272 276 281 281 282 282 282 282 282 282 283 283 284 284 284 284 284 284 283 283 284 285 285 285 285 284 284 284 285 285 285 286 286 287 288 289 289 290 290 291 290 290 290 290 290 291 291 292 291 292 292 292 292 291
268 269 270 266 267 268 269 266 268 269 276 278 278 279 280 281 277 266 262 270 278 278 279 279 278 279 278 278 278 275 277 278 279 280 281 282 281 281 282 283 283 283 283 283 283 285 284 284 284 283 283 284 285 285 285 285 284 284 284 284 284 284 285 286 287 287 288 288 289 289 290 290 290 289 289 290 289 289 289 290 290 291 291 291 292 291
270 268 269 270 267 266 267 266 266 269 275 278 279 280 279 274 265 265 274 280 279 278 279 280 278 279 279 279 278 278 279 280 281 281 280 281 280 281 281 282 282 283 283 284 284 284 283 283 283 283 284 284 285 285 285 285 284 283 284 283 283 284 286 287 287 287 287 288 288 289 289 289 289 288 289 288 288 287 288 289 290 289 289 290 290 290
271 267 267 267 269 270 269 265 265 261 274 279 278 277 279 270 272 278 279 280 281 279 279 279 279 279 280 278 279 279 279 279 279 279 280 280 280 280 281 281 281 281 281 282 282 283 283 282 282 283 283 284 285 285 285 284 283 283 283 283 284 285 286 286 287 287 287 287 288 288 288 288 287 287 287 287 287 287 287 288 288 287 287 288 288 288
276 269 269 271 272 263 266 264 265 272 278 280 278 273 276 278 280 281 280 277 280 280 279 279 279 280 279 278 278 278 279 279 279 279 279 280 280 280 281 281 281 281 282 282 282 283 283 282 283 283 283 284 284 284 284 284 283 283 283 283 285 286 286 286 286 286 286 286 287 287 287 287 287 287 287 287 286 286 286 287 287 287 287 288 288 288
277 272 275 269 275 271 269 272 277 279 280 282 281 280 280 282 282 281 280 279 278 279 280 279 278 279 280 279 279 279 278 278 278 279 279 279 280 280 280 280 281 281 281 281 282 283 283 282 282 282 283 283 284 284 284 284 283 283 283 284 285 285 285 286 286 286 285 286 286 286 287 287 287 286 286 286 286 285 286 287 287 287 287 287 287 288
279 279 280 277 274 279 280 279 281 280 280 280 282 282 281 281 282 282 281 279 280 280 280 279 279 279 280 280 278 278 278 278 278 278 279 279 279 280 280 280 281 281 281 282 282 282 282 282 282 282 282 283 283 284 284 284 284 282 283 285 285 286 286 285 285 285 285 285 286 286 286 286 286 286 286 286 286 285 286 286 287 288 288 288 287 288
278 279 277 273 276 273 269 279 278 278 280 280 280 281 282 282 281 282 280 280 280 281 280 281 280 280 280 280 279 278 278 279 278 278 279 279 279 279 280 280 280 281 281 281 282 282 282 282 281 281 282 281 283 283 284 284 284 284 284 285 285 285 285 285 284 284 285 285 286 286 286 285 286 286 286 286 287 287 286 286 287 287 287 288 288 287
273 280 274 275 275 272 272 276 278 280 280 280 280 279 279 280 281 281 281 281 281 281 281 281 281 280 280 279 279 278 278 279 278 278 278 278 278 279 279 279 280 280 281 281 282 282 282 281 281 281 281 281 282 283 283 283 283 284 284 285 285 285 285 284 284 284 285 285 285 285 285 285 282 283 285 286 286 286 286 287 286 286 287 288 288 288
277 279 271 275 272 275 277 278 278 278 278 279 280 280 280 280 280 280 280 280 281 280 280 281 281 280 280 279 279 279 278 278 278 278 278 278 278 278 279 279 280 280 280 280 281 281 281 281 281 281 281 281 282 282 283 283 283 284 284 285 285 285 284 284 284 284 284 285 285 285 285 285 285 285 285 285 285 285 285 284 285 286 286 286 287 287
277 273 276 275 271 271 271 274 277 271 271 275 278 279 280 281 281 280 280 280 280 279 280 279 280 280 280 280 279 279 278 278 278 278 277 278 278 278 279 279 279 279 280 280 281 281 280 281 281 280 280 281 282 282 282 283 283 284 285 285 285 285 284 284 284 283 283 284 283 284 284 284 285 285 285 285 285 285 286 281 280 281 283 284 284 283
275 276 276 272 271 271 276 278 279 278 277 277 278 280 281 281 281 279 279 279 280 280 280 279 278 278 278 279 280 279 278 278 278 278 277 277 278 279 279 279 278 278 279 279 279 279 279 280 280 280 280 280 281 282 282 282 284 284 285 285 285 285 284 284 282 282 282 282 282 283 283 283 284 284 285 285 285 284 284 285 284 281 281 282 283 284
Wind_Speed
6 12 15 13 13 14 13 11 8 9 8 9 8 9 9 10 11 10 11 10 8 9 6 8 11 14 15 15 16 17 17 14 12 13 14 14 13 10 9 8 7 8 12 14 13 11 12 12 11 9 7 8 9 9 10 10 11 12 12 11 14 12 14 13 12 13 14 14 14 14 16 17 16 15 14 14 14 15 14 15 15 14 14 14 15 15
4 15 15 14 14 13 12 10 9 8 7 8 8 9 9 7 9 11 10 8 6 6 9 10 13 15 15 14 14 14 13 13 12 10 10 12 14 13 14 16 14 10 8 12 14 16 14 14 14 12 10 10 11 9 9 9 10 11 12 13 12 11 13 15 15 13 13 14 14 14 15 15 14 13 13 15 14 14 13 13 14 15 15 15 15 14
13 15 14 15 12 11 7 9 9 7 7 7 7 8 7 6 8 5 4 7 7 8 9 9 12 12 13 12 11 9 8 8 8 8 9 10 12 12 14 13 13 13 13 13 14 15 15 16 15 12 12 12 12 11 10 10 10 11 11 11 12 12 12 14 15 13 13 14 15 14 13 13 12 12 13 13 13 13 14 15 15 15 15 16 15 16
11 11 15 13 10 10 9 12 13 10 4 7 8 7 8 9 9 7 9 11 12 8 9 11 11 11 6 1 3 4 5 6 7 6 7 8 11 11 11 12 13 14 14 15 15 16 16 15 14 14 13 13 12 11 11 12 11 9 9 10 11 12 12 13 15 15 17 16 15 15 15 15 13 11 11 12 13 14 15 16 17 15 16 17 18 17
9 8 11 11 10 11 12 12 16 12 8 8 7 7 8 11 10 8 10 15 15 11 10 10 10 2 3 8 8 6 2 3 3 6 13 12 10 10 11 13 14 14 14 14 16 16 17 17 16 15 15 13 12 12 13 13 12 9 11 11 11 11 11 11 13 16 16 14 14 13 12 12 11 11 11 12 13 15 15 15 15 18 18 18 17 17
10 9 9 11 12 13 12 11 15 12 8 8 3 3 8 9 13 12 11 13 9 7 6 8 7 1 5 11 6 4 5 5 10 15 13 13 14 14 15 14 14 14 13 14 15 15 15 16 16 16 16 16 14 14 14 13 12 13 11 12 12 11 10 11 13 14 14 15 14 12 11 11 12 14 14 15 17 17 17 19 17 17 16 17 17 17
4 9 9 10 12 12 12 9 12 10 8 7 8 3 11 11 11 11 11 8 6 8 4 7 4 5 7 8 4 4 7 8 14 13 13 14 14 15 14 14 14 14 15 15 15 15 17 17 17 17 17 16 15 15 14 13 13 13 13 12 11 11 10 10 12 13 13 16 15 16 14 14 14 14 14 16 16 16 15 13 15 15 15 16 17 18
7 10 11 11 14 14 15 13 13 13 8 7 11 12 12 12 11 10 8 5 6 5 13 5 4 6 7 4 4 7 8 11 13 12 13 14 16 17 16 16 16 15 15 14 15 16 16 16 16 16 16 14 15 14 14 13 13 14 14 13 12 10 10 11 10 12 13 14 15 15 16 14 13 16 18 17 17 16 14 15 14 13 14 16 16 17
5 8 11 11 13 12 12 13 14 9 7 9 16 15 14 11 10 8 5 5 5 6 6 10 5 3 3 3 5 8 7 12 11 13 16 18 18 18 18 17 17 17 16 16 15 16 17 16 16 15 16 15 15 14 13 13 13 13 13 12 11 11 10 10 13 12 13 15 16 16 16 16 15 17 16 15 14 15 15 17 16 14 14 14 16 17
1 2 7 4 7 11 14 15 11 7 8 11 18 16 10 6 4 3 3 4 2 1 7 9 9 5 5 6 6 7 11 10 10 14 17 19 18 17 16 17 18 17 16 16 17 16 16 16 16 15 15 15 14 13 13 14 12 13 12 13 13 12 9 10 11 12 14 15 16 17 17 18 17 14 15 15 16 16 14 16 17 15 14 14 14 16
4 4 2 3 5 7 14 13 8 6 6 15 14 11 3 3 3 3 0 2 2 1 5 8 10 7 4 7 6 6 7 10 13 14 16 20 21 20 17 17 16 17 16 16 17 17 17 15 15 16 16 17 16 14 14 13 13 13 13 14 15 13 10 10 11 11 14 14 15 16 19 20 20 19 17 16 17 16 16 16 18 16 15 14 14 13
3 0 3 3 2 7 9 11 3 3 7 11 8 9 6 3 3 2 1 1 4 5 7 9 12 8 4 3 6 6 9 14 14 16 19 20 19 18 17 17 17 18 18 18 18 18 19 20 20 19 19 19 18 18 18 15 15 14 13 14 16 15 13 11 10 11 11 12 14 16 19 20 20 20 17 19 19 17 19 17 17 13 15 14 14 14
1 3 1 2 4 11 13 8 8 6 6 12 10 10 7 5 3 4 5 6 6 6 9 11 13 6 6 3 7 11 10 13 12 11 15 17 18 18 18 18 16 16 18 17 17 17 17 17 18 19 19 18 18 16 18 18 16 15 14 15 15 16 16 13 12 11 11 12 13 14 16 18 18 20 20 20 19 18 15 13 13 11 12 12 14 15
3 3 5 12 3 10 12 11 13 5 12 11 12 10 7 7 5 6 6 4 5 5 8 12 10 5 4 3 6 10 12 10 11 11 10 13 15 16 17 16 17 17 16 16 16 16 16 16 17 17 17 18 17 18 17 17 16 15 15 15 15 16 15 14 13 12 11 11 12 13 15 15 16 18 19 19 19 19 15 14 14 12 12 13 15 14
6 1 7 10 6 10 10 9 7 6 9 7 5 6 8 5 4 6 6 8 8 9 14 11 2 3 9 5 8 13 10 9 10 9 9 11 12 14 13 15 16 19 18 17 16 16 17 18 19 17 16 16 17 19 17 15 16 15 16 17 18 18 17 15 14 13 12 10 11 11 13 14 14 16 16 17 17 17 18 15 14 13 12 12 13 15
3 7 5 5 5 6 12 10 4 8 5 2 4 3 3 5 2 4 5 5 6 10 8 5 4 7 7 10 5 9 9 5 6 9 11 15 15 15 14 16 17 18 18 17 18 19 20 19 18 18 17 16 16 19 17 18 16 16 16 17 18 18 17 16 15 13 12 12 10 11 13 14 14 13 14 15 14 16 17 17 16 15 13 12 12 11
4 4 3 12 2 1 11 12 5 7 5 7 5 4 5 4 2 5 5 6 8 7 5 3 7 8 8 1 8 6 4 11 15 17 17 18 18 17 15 16 17 17 18 17 17 17 20 20 19 17 18 17 18 18 18 19 17 17 17 16 18 19 18 17 15 14 12 11 11 11 11 12 13 15 16 16 17 17 16 16 17 15 14 13 11 11
5 12 12 5 4 1 9 8 4 2 3 4 4 7 5 0 3 4 5 5 4 4 5 4 10 10 8 5 4 10 12 15 17 20 22 20 19 20 18 17 18 18 17 16 17 17 17 17 19 19 17 18 19 19 19 20 18 15 15 16 17 17 19 19 17 15 13 12 11 10 10 11 12 13 15 15 17 14 13 14 15 15 15 15 13 10
3 9 1 4 4 7 13 8 4 4 3 6 5 6 5 2 2 5 3 5 8 7 6 7 9 9 9 9 8 12 12 13 16 18 20 21 21 19 19 20 21 20 18 17 17 16 17 17 18 19 20 20 20 19 17 17 17 17 17 16 15 16 16 17 14 14 13 12 10 8 9 10 11 11 12 13 14 12 12 14 14 12 14 13 14 9
1 4 4 4 5 10 7 3 2 4 4 1 4 4 3 1 2 5 3 4 2 7 6 4 7 8 4 3 10 12 9 11 15 16 16 17 19 18 18 18 18 18 17 17 17 17 17 17 18 19 20 21 22 21 19 19 17 20 18 17 18 18 17 17 17 16 15 13 11 12 11 9 9 10 9 10 12 12 13 13 14 10 10 14 14 12
3 1 6 3 13 11 1 3 4 5 6 4 2 4 3 3 1 3 2 2 2 5 4 6 8 3 2 5 9 6 7 11 15 17 14 14 16 17 17 18 17 16 15 15 16 17 18 18 18 18 18 18 19 18 18 19 19 18 18 19 18 18 19 18 17 16 15 13 13 13 13 11 10 10 9 8 7 10 12 12 12 10 12 11 11 12
2 2 7 11 8 6 8 3 4 8 7 3 2 3 7 7 7 5 5 2 2 2 5 6 12 13 9 6 1 3 8 12 19 17 13 13 15 16 16 17 17 15 15 15 15 16 16 17 18 18 17 17 18 19 21 20 19 20 20 19 18 18 16 18 18 16 16 14 12 14 13 12 10 9 8 8 7 7 8 9 7 7 8 8 7 8
1 3 5 7 5 11 14 11 2 6 1 2 4 2 6 4 2 2 6 3 6 6 7 9 11 12 0 2 1 7 12 18 19 16 13 13 14 14 15 16 14 14 15 16 17 15 15 16 18 17 18 19 18 18 20 19 18 19 21 21 19 19 20 18 17 16 14 14 14 14 13 11 10 9 9 9 7 6 6 7 7 6 6 5 4 5
3 1 4 7 7 10 10 0 0 2 1 1 2 1 4 4 2 4 6 8 10 11 7 7 9 12 6 4 7 12 17 17 14 15 14 13 12 14 15 15 14 13 14 15 15 15 15 15 15 16 18 18 18 18 18 17 17 18 19 19 19 21 22 20 17 16 16 15 15 15 13 11 10 10 9 9 8 7 5 5 5 4 6 6 5 7
4 1 3 10 6 1 2 0 3 3 1 2 5 5 7 5 4 5 7 7 7 10 11 9 13 10 3 4 11 15 17 17 18 17 13 13 13 14 14 13 13 13 13 15 17 17 18 18 18 16 16 16 16 16 16 17 17 17 18 18 20 20 20 19 18 17 17 16 16 15 13 13 11 9 9 8 7 7 6 4 4 5 6 7 7 7
3 4 4 6 8 8 8 8 9 7 8 8 7 5 5 6 9 7 5 4 7 6 8 8 14 16 15 16 21 20 18 18 18 15 11 10 12 14 14 14 13 12 12 15 17 18 19 17 16 18 19 17 17 16 16 17 17 17 17 17 16 17 19 19 18 17 17 16 15 15 14 13 11 10 10 8 8 8 7 5 3 4 4 5 7 7
2 3 5 6 5 8 9 9 6 10 11 11 13 11 15 10 9 8 8 8 12 9 11 15 18 21 22 23 22 19 19 20 19 14 12 12 12 13 15 14 13 12 12 14 15 15 17 19 21 19 20 19 19 18 16 16 16 16 17 18 17 13 15 18 18 19 17 17 16 14 13 13 12 11 10 9 7 7 7 7 5 4 4 4 4 5
1 4 6 9 12 13 14 15 13 13 16 15 14 16 14 13 11 11 10 12 4 6 15 13 17 16 18 19 21 21 20 20 14 11 12 12 11 13 15 16 16 13 14 14 16 19 19 19 20 21 20 20 19 20 19 17 16 15 15 17 17 16 16 13 17 19 19 17 16 14 14 13 12 12 12 10 8 6 6 5 6 6 4 3 4 5
4 7 3 6 9 10 12 15 14 13 15 15 16 17 18 15 12 12 16 19 15 12 16 16 18 21 21 21 20 19 19 14 10 11 11 11 12 14 17 17 16 14 14 16 19 19 20 20 20 20 21 20 21 22 22 19 18 17 17 16 16 17 16 16 16 17 19 18 16 15 14 12 11 9 10 11 11 9 7 6 4 5 4 5 5 4
4 7 6 4 8 8 11 16 16 16 15 16 17 18 18 17 17 16 18 17 16 18 20 20 21 24 22 23 21 18 9 7 8 8 9 12 14 16 18 18 16 14 14 16 17 19 19 20 21 21 21 21 22 22 22 20 19 18 18 17 17 17 18 16 16 13 14 16 16 15 14 13 10 10 10 10 10 9 9 7 6 6 6 5 4 5
0 5 4 8 10 9 9 11 12 12 11 16 20 17 20 19 17 17 15 17 17 16 20 23 23 22 18 18 15 5 6 7 8 11 12 12 15 18 18 18 17 14 14 15 17 19 20 21 21 21 22 22 22 22 20 18 19 18 19 18 17 16 15 16 17 16 12 13 14 13 12 11 11 10 10 9 9 9 9 7 6 6 7 7 7 6
4 6 6 6 8 9 4 6 6 6 11 15 20 20 16 11 8 8 7 8 8 13 17 18 16 15 13 6 5 9 8 9 11 12 12 13 16 18 19 18 17 14 14 16 17 18 20 21 21 21 21 22 21 22 20 19 19 18 19 19 18 17 15 15 16 16 17 14 12 12 12 12 11 10 10 9 9 9 8 7 5 4 4 5 7 7
4 5 6 6 7 10 4 3 6 13 13 12 8 8 8 6 8 9 11 13 13 13 13 12 13 12 11 2 11 14 14 12 12 11 13 15 16 17 17 18 17 14 14 17 20 20 20 20 19 20 20 20 20 20 20 19 18 18 18 19 19 17 16 16 15 16 16 16 15 12 10 11 13 13 10 8 9 9 8 8 6 4 3 4 5 5
7 8 6 4 4 5 7 7 7 8 8 5 3 2 2 9 17 20 16 13 12 10 12 13 15 15 17 14 13 13 13 14 14 14 12 13 13 15 18 18 17 14 15 18 19 20 21 20 18 18 19 20 20 20 19 17 17 17 16 16 16 18 18 17 17 15 15 15 15 14 10 9 9 11 13 11 8 8 8 8 7 5 4 3 3 4
7 7 6 3 3 7 8 10 10 7 7 2 1 5 14 19 18 18 17 12 11 12 14 16 17 19 21 17 11 11 14 16 16 18 18 15 13 13 18 20 17 15 18 19 20 21 22 22 21 20 19 20 20 20 19 19 17 17 17 16 17 17 19 18 18 16 14 14 15 14 14 13 10 8 11 12 11 9 7 7 6 5 4 3 4 4
7 7 5 4 4 7 6 5 6 6 2 9 14 17 17 13 13 12 14 12 10 12 15 18 19 20 17 13 12 12 14 15 16 15 15 19 18 16 16 17 18 18 18 17 20 21 22 22 21 21 20 18 18 19 18 18 18 17 18 17 15 16 17 19 18 17 14 13 14 14 15 14 14 14 11 10 10 10 9 7 6 6 5 4 3 3
11 4 4 5 4 4 5 7 12 13 17 14 7 4 4 11 11 10 16 15 12 11 15 19 21 19 13 13 12 14 17 19 19 18 18 16 18 17 15 16 18 19 18 18 19 20 20 21 20 21 19 19 19 19 18 17 16 17 18 18 16 16 16 17 19 19 17 16 13 14 15 14 14 14 13 10 8 9 10 8 8 6 4 4 4 3
12 9 5 4 4 6 8 14 13 13 15 8 5 10 7 6 8 8 8 14 10 14 15 18 18 17 15 16 19 21 20 18 18 17 18 21 20 20 18 18 17 18 18 19 19 19 19 18 19 19 18 20 20 19 17 16 16 17 17 18 17 17 16 16 16 18 19 18 15 14 14 14 13 14 13 11 10 9 9 9 7 6 4 4 5 5
10 10 6 8 8 6 8 9 11 10 12 10 11 8 9 6 5 6 8 14 9 11 10 11 13 16 20 23 22 19 17 16 18 18 15 20 21 21 22 20 20 19 20 21 21 21 20 19 18 19 19 20 20 20 19 19 18 16 15 16 17 17 17 16 16 16 18 20 18 16 14 13 13 13 12 12 10 8 10 8 6 6 6 5 4 5
6 7 6 7 9 10 10 10 11 6 7 4 11 14 10 8 1 5 15 12 7 8 11 14 21 20 17 18 19 18 16 19 20 18 19 22 22 22 21 21 21 22 23 24 22 21 20 18 18 19 21 22 21 20 20 19 17 17 16 17 16 17 17 16 16 16 16 17 19 17 15 12 11 12 11 11 10 8 8 8 7 6 5 4 4 5
3 4 8 12 11 15 17 11 12 12 9 10 13 16 15 8 6 9 12 10 10 16 16 16 16 17 16 18 16 18 17 18 20 22 23 23 23 23 22 22 22 22 23 23 23 21 18 17 17 18 21 19 19 18 17 16 17 17 17 17 17 18 17 16 16 16 16 15 16 18 19 15 11 12 13 9 10 8 7 7 7 7 5 5 4 4
3 3 4 6 9 12 11 13 12 12 10 9 12 8 3 3 6 13 9 12 17 20 17 13 18 19 19 19 18 18 20 21 23 22 23 23 23 23 23 23 23 23 22 22 22 20 19 18 19 20 20 20 19 18 16 16 17 17 17 17 19 19 16 15 15 15 15 15 15 15 17 17 15 9 8 7 5 7 7 6 6 6 5 3 4 5
5 3 7 7 4 6 7 8 8 9 1 6 2 4 4 5 9 10 13 17 14 14 14 15 16 18 17 19 20 22 23 23 24 24 24 24 23 23 23 24 24 24 23 22 22 21 20 19 20 20 20 18 18 16 16 16 18 18 17 18 20 17 16 16 14 15 16 15 14 15 15 15 17 15 6 6 6 6 8 6 4 4 4 3 3 3
5 5 8 10 5 5 8 8 6 5 12 4 8 11 8 11 14 15 13 16 12 11 15 14 16 18 20 20 22 23 23 24 23 23 23 23 23 23 23 24 24 24 23 22 22 22 21 20 19 18 18 18 17 16 15 14 16 16 17 21 18 15 15 14 15 15 15 12 13 12 13 13 14 15 9 7 6 6 6 6 4 4 4 3 3 4
7 9 6 9 6 10 12 13 17 17 14 12 11 12 15 17 18 21 17 15 17 16 17 17 20 20 20 22 22 22 21 20 22 23 24 23 23 23 23 24 24 25 24 23 22 21 20 19 20 19 20 18 19 17 15 14 15 16 18 19 16 15 15 15 14 13 13 13 13 13 13 13 11 12 12 7 5 6 6 5 3 4 3 3 3 4
7 9 7 10 17 16 17 15 14 16 19 19 17 16 21 22 19 17 18 18 17 19 17 18 21 20 19 18 19 19 19 21 23 23 23 23 23 24 24 24 24 25 24 23 21 21 19 19 18 17 18 19 19 17 15 14 13 16 18 18 16 15 14 14 14 14 14 13 12 13 13 13 14 14 12 11 5 5 6 6 5 4 3 2 3 3
14 11 10 12 13 12 9 4 13 18 18 20 21 19 18 18 17 15 18 18 19 17 17 18 18 19 20 19 18 20 22 21 22 22 22 21 22 23 23 24 24 24 25 24 23 20 18 16 16 17 16 17 19 17 14 13 12 15 16 15 14 13 14 14 14 13 12 12 12 12 12 12 10 10 11 10 7 5 4 4 4 4 4 3 3 3
8 5 5 11 14 13 14 16 19 20 20 19 16 17 17 17 17 17 17 17 17 16 15 17 18 19 18 17 18 20 21 21 21 20 19 19 20 20 21 22 23 23 24 24 22 18 16 17 17 17 18 19 19 17 15 14 14 13 14 14 13 13 14 14 13 13 12 12 11 10 10 10 13 12 10 9 7 7 6 3 3 4 5 4 3 4
10 2 8 6 9 14 18 20 20 19 18 18 19 19 17 18 20 21 19 19 18 19 20 20 18 18 17 19 19 19 19 19 20 19 19 19 19 19 19 20 21 22 23 23 22 17 17 17 17 17 17 19 19 17 15 15 14 13 14 13 12 12 13 13 13 11 11 10 10 11 9 10 9 9 9 9 8 6 4 5 6 5 5 3 3 4
6 12 15 14 14 14 14 15 16 15 15 15 17 19 20 20 21 21 19 17 18 19 19 21 19 16 16 18 18 17 18 18 18 18 19 19 19 20 20 20 20 22 22 22 19 18 18 17 17 19 19 20 19 17 16 15 15 13 11 11 11 11 11 12 12 12 11 10 11 12 11 10 10 9 8 7 7 8 6 6 9 6 5 5 2 6
12 14 12 12 12 14 15 16 16 16 18 18 21 22 21 20 19 21 22 21 19 19 20 20 19 17 17 18 17 17 18 17 19 18 19 18 19 19 19 20 20 19 21 22 20 20 18 18 19 19 20 20 17 16 15 14 14 13 12 10 10 11 12 12 11 10 10 11 11 11 11 11 11 10 8 8 7 6 7 7 4 11 12 11 11 10
Wind_Direction
302 42 30 16 2 350 350 351 339 323 312 299 305 306 311 314 313 318 325 310 317 308 289 313 314 307 306 309 308 307 310 309 309 311 315 317 320 323 325 334 344 345 334 322 324 335 336 339 342 332 317 315 307 293 278 263 248 239 232 229 227 222 221 223 214 215 213 212 215 219 220 222 222 220 219 221 222 223 224 223 222 221 222 223 225 223
354 42 25 5 345 335 336 342 340 333 332 325 315 315 314 324 313 330 320 340 327 313 297 306 304 301 300 301 297 297 299 306 315 317 316 320 322 327 340 356 6 355 340 342 350 358 4 1 358 356 350 340 336 328 312 288 271 257 247 240 237 228 232 226 224 218 213 215 215 211 218 221 224 220 218 223 223 224 226 224 221 222 222 220 220 221
45 38 9 353 340 326 360 8 3 349 340 339 342 336 323 337 336 318 302 334 328 301 296 309 305 296 297 295 297 303 304 302 312 324 314 314 322 344 4 4 1 6 3 358 359 3 5 3 4 4 2 359 348 337 327 313 296 277 259 247 242 237 235 234 229 220 220 223 223 223 230 228 232 229 227 229 228 224 226 225 222 220 220 217 217 218
47 20 358 343 348 346 17 19 10 1 350 1 349 349 345 352 351 338 349 345 322 310 298 312 300 294 304 328 307 298 335 330 323 316 302 22 20 23 19 16 11 14 8 6 2 360 359 0 0 0 0 355 348 351 349 344 329 309 284 266 253 245 234 231 233 228 229 228 227 226 232 233 229 229 226 230 232 230 226 227 224 221 220 216 216 213
54 7 337 338 356 3 1 18 16 4 1 14 21 10 348 343 331 328 325 327 310 281 262 291 287 233 86 18 352 26 55 265 293 343 45 54 40 37 34 26 19 15 10 4 2 1 359 357 358 356 353 349 352 351 348 343 337 320 311 297 279 263 249 237 230 230 233 233 234 231 231 234 233 230 228 225 227 227 227 227 223 220 216 216 216 213
38 15 343 354 355 1 6 18 20 0 4 359 83 355 328 319 316 317 324 331 323 336 133 338 333 134 63 2 345 18 347 349 46 48 39 38 35 31 29 22 15 13 11 7 5 2 357 356 352 355 353 352 348 348 343 338 335 333 322 310 300 284 266 249 238 226 227 234 233 227 219 221 221 226 222 222 226 224 223 224 226 225 220 218 219 220
351 338 358 344 339 3 18 17 16 4 353 343 21 305 313 308 307 314 323 334 332 332 356 10 309 294 30 345 327 333 336 358 53 47 39 30 27 24 21 16 12 10 4 1 3 3 360 357 354 352 352 348 346 343 338 335 336 337 333 324 311 298 285 266 249 233 231 234 235 232 226 225 220 222 229 230 234 237 234 233 233 231 223 216 220 221
341 352 353 351 2 12 10 3 350 354 333 353 342 318 309 298 304 318 324 303 295 295 286 264 243 288 313 312 302 350 337 47 48 49 41 33 25 20 14 11 8 6 5 359 358 359 358 355 354 349 344 344 342 338 336 336 336 336 335 330 322 310 299 286 266 245 233 236 234 230 230 226 225 230 235 232 236 238 240 237 234 232 229 223 222 222
13 343 359 350 4 12 1 333 327 338 328 312 321 318 299 288 294 299 292 289 292 322 353 30 358 290 266 340 346 3 31 44 44 37 34 26 20 16 10 8 5 3 0 0 358 355 354 351 347 345 342 339 338 338 337 337 334 332 329 329 328 322 310 298 287 266 246 241 237 234 234 232 230 236 237 238 239 239 236 236 235 232 231 228 223 222
22 356 332 320 360 4 335 328 328 325 328 327 313 301 280 288 292 256 238 271 316 300 19 11 2 325 323 56 54 45 41 37 34 38 32 21 15 11 8 4 2 0 360 357 357 353 351 349 346 342 337 341 342 337 334 333 333 334 334 332 332 328 321 309 298 284 261 244 239 237 233 233 235 230 235 236 239 238 236 235 233 230 229 230 226 223
285 297 217 345 17 351 323 317 315 313 276 289 298 310 18 94 86 116 246 246 243 227 33 6 356 340 323 61 37 36 42 20 21 25 18 12 9 6 4 4 359 359 357 357 352 351 347 347 346 345 344 343 342 340 339 339 338 335 334 333 333 328 320 315 306 294 281 261 243 241 238 236 236 236 234 235 238 237 233 233 234 232 233 234 233 227
360 299 56 9 219 318 318 313 344 279 267 329 342 335 290 159 154 143 104 241 341 11 35 2 346 325 266 98 69 67 50 38 35 23 12 7 1 358 357 357 357 356 355 352 353 350 348 346 348 349 347 346 343 341 342 340 337 335 333 332 331 330 330 322 313 303 290 279 257 245 244 240 238 236 236 235 236 233 232 229 233 225 233 233 233 228
151 52 262 336 179 351 349 346 4 309 332 2 0 5 22 21 8 12 14 6 359 329 336 345 349 313 252 32 99 77 58 53 47 34 18 5 358 356 353 356 356 355 354 352 348 347 347 347 346 344 342 342 343 341 338 336 333 333 331 332 331 327 329 326 318 309 297 285 273 259 249 246 242 240 238 238 239 235 231 223 220 217 218 221 228 229
13 198 6 4 209 4 359 9 356 9 353 360 15 8 23 19 28 8 357 323 309 294 318 336 339 271 338 113 78 83 57 54 56 35 21 11 359 353 351 354 354 355 354 350 346 346 345 344 343 342 340 340 338 337 337 334 333 333 329 331 329 324 326 326 322 318 306 292 283 275 262 252 247 244 242 242 242 241 235 228 230 216 222 218 223 222
354 327 46 13 9 354 8 18 340 301 316 353 343 23 53 47 25 353 345 343 326 310 313 319 298 32 342 57 144 90 75 56 39 29 10 5 1 355 351 354 356 356 354 350 347 344 345 342 343 341 340 338 337 336 336 335 334 332 331 331 330 327 328 328 324 321 315 304 293 281 272 263 254 249 246 245 244 243 240 233 227 227 218 224 221 224
279 271 298 22 315 333 360 351 312 305 268 3 335 273 34 45 328 337 320 298 323 317 316 343 309 321 311 317 133 99 106 80 42 17 12 8 360 354 355 357 353 351 350 348 345 343 343 344 343 343 342 340 338 337 335 335 335 333 330 327 326 325 325 328 328 322 317 313 302 292 283 275 265 257 253 250 246 245 243 241 234 225 218 220 224 218
301 254 44 333 3 54 355 337 339 328 353 335 320 31 351 302 231 301 260 222 262 264 260 300 302 302 317 3 101 91 49 23 14 8 9 1 354 355 358 356 352 345 342 344 344 344 342 342 344 344 342 341 340 338 335 334 333 329 328 328 329 326 326 328 331 324 317 313 308 298 288 282 276 265 255 250 250 249 247 245 242 240 235 229 223 226
334 289 305 296 336 66 343 327 276 22 306 289 16 7 331 257 261 0 322 312 314 317 300 331 303 310 336 322 96 19 19 22 14 3 355 356 354 354 353 352 349 344 341 340 342 344 343 341 342 341 341 342 340 337 335 334 333 329 329 329 328 327 328 327 328 329 324 316 310 304 298 287 278 274 267 260 255 250 247 244 245 243 241 238 229 209
343 303 19 157 318 323 340 321 171 226 334 28 34 316 316 12 314 355 307 340 339 325 313 293 300 283 277 280 342 351 14 11 6 3 353 349 351 351 349 346 345 345 344 345 347 346 345 345 344 344 341 341 341 339 336 334 335 333 333 331 331 329 326 323 322 325 323 320 314 305 300 295 288 279 275 270 263 253 244 241 241 238 241 241 236 217
241 281 316 124 357 327 303 316 3 354 124 171 262 43 36 286 25 326 4 293 284 289 331 286 321 290 251 341 345 330 20 359 354 0 352 343 345 347 345 345 342 344 344 344 345 345 344 345 345 345 345 344 344 343 343 341 340 339 338 335 333 332 332 330 331 330 327 326 317 310 306 297 285 280 274 277 277 261 248 245 239 230 233 239 238 234
309 217 279 335 346 313 358 11 354 338 325 332 353 25 27 21 247 249 246 245 287 302 300 303 305 283 127 356 315 329 354 351 353 348 344 342 342 345 345 341 339 343 343 345 344 344 343 343 345 346 347 345 345 344 346 347 344 340 337 337 336 334 332 334 333 331 326 323 320 315 310 310 304 291 277 264 274 293 277 251 238 234 233 229 230 230
291 213 275 308 327 342 300 14 348 304 294 283 348 44 5 357 355 350 313 153 246 273 298 302 279 275 297 294 288 356 333 341 347 338 339 344 344 343 343 339 338 339 341 343 343 342 341 341 343 343 345 348 348 348 348 346 345 345 341 336 335 336 336 335 332 331 325 321 316 317 314 312 308 298 290 280 260 254 279 303 293 258 235 227 220 215
308 297 282 294 294 300 292 311 41 310 252 273 307 30 1 352 322 337 316 334 314 267 279 264 281 277 17 149 261 330 337 342 336 334 339 348 345 342 337 335 333 335 339 340 342 342 342 342 341 342 345 346 347 346 346 346 346 344 341 339 338 336 334 333 328 325 323 317 316 317 316 311 307 307 300 288 271 252 254 262 273 298 300 277 261 239
121 311 283 259 275 265 290 59 138 14 148 124 117 89 343 332 339 301 296 307 295 292 284 275 251 261 235 298 313 329 333 326 325 335 345 346 345 339 335 331 329 333 338 340 341 341 341 340 342 344 347 346 346 346 343 342 341 341 342 341 339 336 334 332 329 326 324 322 317 316 316 316 312 306 304 301 296 288 268 260 269 266 253 253 257 251
304 146 304 316 322 207 202 136 137 231 236 326 311 319 307 298 322 321 293 273 266 254 257 263 269 273 227 287 301 310 317 319 325 333 344 345 343 337 333 329 326 329 335 339 341 341 341 341 343 343 343 344 343 342 341 339 341 340 340 339 339 335 333 330 327 326 325 322 318 318 320 317 318 311 307 304 304 303 298 289 284 280 277 269 256 248
251 298 322 326 342 336 334 328 328 317 318 311 297 308 288 290 296 310 293 276 263 259 243 241 260 269 290 298 299 307 315 319 324 337 350 348 341 336 330 327 325 327 331 336 338 341 342 339 338 341 342 342 343 340 338 338 336 335 335 335 335 334 334 331 328 326 323 323 320 318 319 319 319 317 313 309 307 305 304 300 276 264 259 258 259 259
264 272 254 259 258 262 269 282 306 327 313 296 288 288 287 280 274 271 274 265 249 268 268 255 259 280 289 294 296 308 315 317 325 339 345 344 338 334 330 324 325 323 329 332 335 337 338 340 340 339 339 338 338 339 336 333 333 334 335 332 332 332 334 330 329 327 325 323 320 318 320 322 322 320 312 310 309 309 309 304 293 258 243 236 246 256
8 285 244 256 252 256 269 275 286 294 286 283 289 289 284 278 272 265 242 245 255 320 273 263 267 276 283 289 295 304 311 316 330 343 339 336 334 331 330 324 322 322 328 334 338 342 340 336 336 336 336 337 336 335 334 333 331 333 333 331 330 327 333 335 330 326 324 324 321 321 324 325 321 318 315 310 302 296 295 297 300 298 288 259 239 232
327 292 235 225 251 260 270 278 282 282 275 278 281 281 282 278 266 250 245 249 264 257 258 271 284 287 289 288 293 300 307 322 336 333 328 321 323 327 331 327 323 322 329 336 340 338 337 335 332 332 333 334 334 335 333 332 331 331 332 330 329 332 330 332 329 324 324 323 323 324 324 323 320 317 315 313 312 310 310 308 303 296 289 284 274 256
311 257 263 259 283 279 274 274 274 276 279 277 268 271 270 272 269 264 267 264 255 252 256 266 274 275 280 284 293 301 313 319 318 313 316 325 328 330 327 325 319 316 324 334 335 335 333 332 330 329 330 330 333 332 331 329 329 330 328 327 327 327 329 331 325 317 319 322 320 320 321 320 316 318 316 310 309 310 313 316 319 319 314 303 288 285
248 282 326 321 304 287 265 260 269 270 281 287 283 273 270 269 270 268 265 265 265 261 258 258 263 268 271 279 292 303 301 300 305 320 324 324 326 326 323 319 315 308 320 329 332 332 330 327 326 325 327 328 329 329 327 325 325 325 324 324 324 324 324 325 321 319 309 315 318 314 316 319 322 322 317 316 308 302 300 303 309 312 312 311 314 308
195 273 305 301 308 295 271 260 269 286 287 277 281 284 277 261 258 258 235 231 229 264 276 280 280 283 293 300 301 294 285 298 312 316 318 322 324 322 318 313 307 305 316 325 328 327 326 325 324 323 322 323 323 323 323 323 323 322 322 322 322 320 319 320 320 319 319 313 317 316 318 319 319 319 319 316 312 308 302 295 291 293 295 300 301 301
238 280 294 308 293 288 242 219 327 310 291 276 250 247 257 271 231 250 265 270 256 264 276 277 280 297 312 310 294 290 295 305 306 309 311 312 315 315 311 313 308 302 314 323 323 322 321 320 319 318 317 317 319 319 318 318 316 316 316 317 317 316 316 316 316 317 318 318 317 319 319 323 324 320 319 318 312 307 302 298 295 291 297 297 298 296
256 255 266 285 266 282 267 320 310 296 297 283 46 97 76 305 305 301 296 292 287 279 277 282 290 296 298 292 283 287 299 306 308 302 297 300 304 311 310 309 306 302 314 318 318 317 317 315 313 313 312 311 312 313 312 310 310 310 311 309 311 315 315 314 313 314 316 317 316 317 314 313 315 318 319 316 307 301 301 301 301 307 298 292 286 276
239 247 259 227 254 285 302 307 303 257 245 70 66 300 294 296 294 288 287 277 271 280 284 292 297 301 299 297 284 283 287 291 293 296 297 296 301 310 311 308 306 310 313 314 314 315 314 312 310 310 310 311 313 312 313 312 313 311 309 311 312 314 313 313 311 308 311 316 313 316 321 322 315 305 314 315 312 305 296 293 294 295 300 301 295 293
235 233 240 245 243 277 273 264 291 248 14 289 289 285 280 278 267 275 275 282 285 283 290 290 294 294 295 290 278 281 284 289 290 286 296 308 307 310 311 308 307 308 307 308 311 310 310 309 308 308 307 306 306 308 310 308 310 310 308 308 307 309 310 310 310 308 309 315 316 317 321 320 319 317 310 311 309 306 301 300 301 305 305 293 282 270
219 215 204 265 191 241 248 249 241 284 291 285 275 240 305 301 304 301 304 298 300 280 282 290 291 292 291 278 293 310 321 320 310 304 304 305 310 309 303 300 301 298 298 301 304 304 301 298 297 300 301 302 304 302 304 305 306 307 306 306 307 308 307 306 307 309 311 310 310 313 316 316 316 313 310 307 297 293 301 303 308 303 297 288 278 275
204 195 210 188 243 188 262 280 289 296 291 294 304 288 289 274 276 280 274 278 279 276 273 280 290 298 307 321 318 318 319 310 302 303 310 313 314 315 309 302 295 292 292 297 298 296 294 291 292 295 298 300 299 297 298 302 304 304 302 302 303 305 305 302 301 308 310 309 311 310 311 311 311 309 307 307 304 299 293 293 292 286 291 286 296 290
212 220 233 233 259 281 274 277 272 275 265 278 296 306 299 273 236 274 275 277 292 284 300 318 322 327 321 315 316 319 312 302 300 302 309 315 310 308 306 304 301 298 298 301 302 300 294 291 290 293 294 293 293 296 299 302 301 299 294 297 299 300 300 300 299 304 306 308 310 307 302 302 304 305 302 301 297 297 298 293 293 296 298 285 279 281
178 214 211 238 244 233 239 248 265 237 275 264 270 275 283 282 242 307 286 290 38 16 344 333 315 310 304 302 304 301 298 298 301 305 309 304 303 302 300 300 299 299 299 299 298 295 291 288 288 291 294 294 293 296 298 299 299 294 292 293 296 296 295 297 298 300 300 301 305 306 303 298 298 302 300 297 295 291 285 289 292 286 284 277 272 287
186 226 189 227 236 247 246 257 268 272 260 273 287 290 288 313 276 264 257 290 336 326 322 307 299 302 300 297 295 297 295 293 296 297 299 300 300 300 300 297 295 294 295 296 295 294 291 288 285 287 290 290 291 291 293 295 294 293 292 292 293 292 293 294 295 297 297 298 300 303 303 302 299 302 302 293 292 291 288 286 285 287 285 284 283 280
218 187 241 218 241 253 251 251 252 268 265 235 264 281 10 42 262 259 306 340 315 303 295 307 302 295 293 294 297 293 295 294 295 298 300 302 301 300 298 296 296 295 295 295 293 291 289 289 290 288 288 288 288 289 290 292 292 291 292 292 290 291 295 292 293 294 295 294 295 296 299 302 302 299 290 289 287 285 283 276 275 281 281 276 277 272
240 187 255 232 224 247 251 251 265 268 62 108 327 248 145 263 289 305 301 295 299 297 298 290 288 292 295 298 296 296 297 300 302 303 302 300 300 300 300 298 297 297 297 296 294 291 290 290 291 289 288 287 286 285 287 289 290 291 290 288 288 292 293 293 293 293 294 294 293 293 294 297 302 303 295 288 286 278 277 278 269 263 262 264 259 252
202 222 263 268 157 213 243 246 229 263 294 327 340 302 302 276 284 287 295 297 290 284 290 296 297 303 304 298 300 300 301 301 301 302 301 299 299 299 298 297 296 295 294 292 291 290 289 288 288 286 284 284 284 283 285 288 289 288 289 286 288 291 292 292 293 294 295 294 290 292 293 294 295 298 295 290 292 276 270 273 263 258 253 246 244 248
165 202 233 268 266 269 272 273 284 294 298 298 292 278 287 295 299 304 300 298 300 299 302 299 303 304 302 300 298 299 301 301 300 301 301 301 300 300 300 298 295 293 292 292 291 291 289 288 287 288 288 287 286 283 285 286 287 288 285 286 290 290 295 295 295 294 294 292 292 293 293 294 292 293 296 291 276 282 282 272 257 262 239 228 242 247
233 254 268 273 274 273 271 273 287 288 291 294 297 302 304 304 302 300 299 298 296 297 299 300 303 300 297 297 298 298 297 301 301 301 300 302 302 301 299 297 295 293 292 292 292 292 292 291 288 285 284 285 286 286 286 288 285 284 283 289 291 293 294 293 293 291 289 290 291 292 294 295 294 293 289 290 277 258 267 277 281 271 268 246 253 254
263 263 268 268 285 292 275 293 281 289 291 299 305 300 293 294 296 296 294 293 295 296 296 296 294 294 295 297 294 295 297 301 301 300 301 302 302 303 302 300 299 298 297 297 297 297 295 295 291 290 287 288 287 286 286 289 284 280 285 287 289 292 292 288 288 286 286 287 291 294 295 295 293 298 300 295 288 275 259 257 266 266 262 261 266 261
271 100 278 256 269 267 280 287 286 290 297 294 292 295 298 297 291 286 289 290 292 292 289 289 291 290 297 296 296 298 298 299 298 299 301 303 302 301 301 300 300 300 298 298 297 297 295 292 290 290 292 291 289 289 289 290 287 284 285 286 288 289 288 287 286 287 289 291 296 293 293 291 290 289 286 289 292 298 297 269 236 254 262 266 272 283
271 278 260 270 268 271 273 280 288 300 296 298 303 300 295 298 299 296 295 293 292 292 292 289 289 293 295 294 295 293 294 294 296 299 299 299 299 299 298 298 299 299 299 300 301 301 299 299 296 293 291 288 288 287 289 288 286 286 285 287 290 290 289 290 292 287 289 292 291 288 285 285 283 280 283 285 289 272 248 275 293 284 281 243 261 268
261 260 271 277 278 280 290 300 313 309 307 305 298 296 293 293 295 294 293 286 288 290 291 292 293 290 288 288 290 292 293 296 297 299 299 298 297 296 297 300 301 301 300 301 302 303 301 297 293 293 292 291 291 290 289 288 287 285 284 288 289 290 291 295 297 296 292 296 295 291 290 291 289 282 278 277 282 293 285 218 230 257 273 292 246 246
241 257 271 269 275 281 292 297 299 294 294 296 296 293 292 294 294 293 289 289 290 290 291 291 291 290 288 290 293 295 295 297 299 301 299 298 296 297 299 300 302 303 303 304 306 305 305 305 304 300 295 293 294 292 293 292 291 292 294 294 293 296 295 296 293 286 287 293 289 290 296 295 292 287 285 283 280 280 286 298 236 220 245 259 279 278